Time,TemperatureF,DewpointF,PressureIn,WindDirection,WindDirectionDegrees,WindSpeedMPH,WindSpeedGustMPH,Humidity,HourlyPrecipIn,Conditions,Clouds,dailyrainin,SoftwareType,DateUTC
2013-01-27 00:00:00,37.8,32.8,30.30,NW,321,0.0,0.0,82,0.00,,CLR,0.00,VWS V14.01,2013-01-27 05:00:00,
2013-01-27 00:05:00,37.6,32.9,30.30,NW,321,0.0,0.0,83,0.00,,CLR,0.00,VWS V14.01,2013-01-27 05:05:00,
2013-01-27 00:10:00,37.4,32.7,30.30,NW,321,0.0,0.0,83,0.00,,CLR,0.00,VWS V14.01,2013-01-27 05:10:00,
2013-01-27 00:15:00,37.3,32.6,30.30,NW,321,0.0,0.0,83,0.00,,CLR,0.00,VWS V14.01,2013-01-27 05:15:00,
2013-01-27 00:20:00,37.3,32.9,30.31,NW,321,0.0,0.0,84,0.00,,CLR,0.00,VWS V14.01,2013-01-27 05:20:00,
2013-01-27 00:25:00,37.2,32.8,30.30,NW,321,0.0,0.0,84,0.00,,CLR,0.00,VWS V14.01,2013-01-27 05:25:00,
2013-01-27 00:30:00,36.7,32.6,30.32,NW,321,0.0,1.0,85,0.00,,SCT070,0.00,VWS V14.01,2013-01-27 05:30:00,
2013-01-27 00:35:00,37.0,32.6,30.31,NW,321,0.0,0.0,84,0.00,,CLR,0.00,VWS V14.01,2013-01-27 05:35:00,
2013-01-27 00:40:00,37.0,32.6,30.31,NW,321,0.0,1.0,84,0.00,,CLR,0.00,VWS V14.01,2013-01-27 05:40:00,
2013-01-27 00:45:00,36.5,32.7,30.32,NW,321,0.0,1.0,86,0.00,,SCT070,0.00,VWS V14.01,2013-01-27 05:45:00,
2013-01-27 00:50:00,36.9,32.5,30.31,NW,321,0.0,0.0,84,0.00,,CLR,0.00,VWS V14.01,2013-01-27 05:50:00,
2013-01-27 00:55:00,36.9,32.5,30.31,NW,321,0.0,0.0,84,0.00,,CLR,0.00,VWS V14.01,2013-01-27 05:55:00,
2013-01-27 01:00:00,36.9,32.5,30.31,NW,321,0.0,0.0,84,0.00,,CLR,0.00,VWS V14.01,2013-01-27 06:00:00,
2013-01-27 01:05:00,36.9,32.5,30.31,NW,321,0.0,0.0,84,0.00,,CLR,0.00,VWS V14.01,2013-01-27 06:05:00,
2013-01-27 01:10:00,36.9,32.5,30.31,NW,321,0.0,0.0,84,0.00,,CLR,0.00,VWS V14.01,2013-01-27 06:10:00,
2013-01-27 01:15:00,36.9,32.5,30.31,NW,321,0.0,0.0,84,0.00,,CLR,0.00,VWS V14.01,2013-01-27 06:15:00,
2013-01-27 01:25:00,36.8,32.7,30.32,NW,321,0.0,1.0,85,0.00,,CLR,0.00,VWS V14.01,2013-01-27 06:25:00,
2013-01-27 01:30:00,36.7,32.6,30.32,NW,321,0.0,1.0,85,0.00,,CLR,0.00,VWS V14.01,2013-01-27 06:30:00,
2013-01-27 01:40:00,36.5,32.4,30.32,NW,321,0.0,0.0,85,0.00,,CLR,0.00,VWS V14.01,2013-01-27 06:40:00,
2013-01-27 01:45:00,36.5,32.7,30.32,NW,321,0.0,1.0,86,0.00,,CLR,0.00,VWS V14.01,2013-01-27 06:45:00,
2013-01-27 01:50:00,36.6,32.5,30.32,NW,321,0.0,0.0,85,0.00,,CLR,0.00,VWS V14.01,2013-01-27 06:50:00,
2013-01-27 01:55:00,36.6,32.5,30.33,NW,321,0.0,0.0,85,0.00,,CLR,0.00,VWS V14.01,2013-01-27 06:55:00,
2013-01-27 02:00:00,36.7,32.6,30.33,NW,321,0.0,1.0,85,0.00,,CLR,0.00,VWS V14.01,2013-01-27 07:00:00,
2013-01-27 02:05:00,36.8,32.7,30.33,NNW,348,0.0,2.0,85,0.00,,CLR,0.00,VWS V14.01,2013-01-27 07:05:00,
2013-01-27 02:15:00,36.9,32.8,30.34,NNW,348,0.0,2.0,85,0.00,,CLR,0.00,VWS V14.01,2013-01-27 07:15:00,
2013-01-27 02:25:00,36.8,32.4,30.34,NNW,348,0.0,0.0,84,0.00,,CLR,0.00,VWS V14.01,2013-01-27 07:25:00,
2013-01-27 02:30:00,36.6,32.5,30.34,NNW,348,0.0,0.0,85,0.00,,CLR,0.00,VWS V14.01,2013-01-27 07:30:00,
2013-01-27 02:40:00,36.1,32.3,30.34,NNW,348,0.0,0.0,86,0.00,,CLR,0.00,VWS V14.01,2013-01-27 07:40:00,
2013-01-27 02:45:00,35.9,32.1,30.34,NNW,348,0.0,0.0,86,0.00,,CLR,0.00,VWS V14.01,2013-01-27 07:45:00,
2013-01-27 02:55:00,36.0,32.2,30.34,NNW,348,0.0,1.0,86,0.00,,CLR,0.00,VWS V14.01,2013-01-27 07:55:00,
2013-01-27 03:00:00,35.9,32.1,30.35,NNW,348,0.0,1.0,86,0.00,,CLR,0.00,VWS V14.01,2013-01-27 08:00:00,
2013-01-27 03:10:00,35.7,31.9,30.35,NNW,348,0.0,0.0,86,0.00,,CLR,0.00,VWS V14.01,2013-01-27 08:10:00,
2013-01-27 03:14:00,35.5,31.7,30.35,NNW,348,0.0,0.0,86,0.00,,CLR,0.00,VWS V14.01,2013-01-27 08:14:00,
2013-01-27 03:15:00,34.6,31.1,30.36,North,360,0.0,2.0,87,0.00,,SCT070,0.00,VWS V14.01,2013-01-27 08:15:00,
2013-01-27 03:24:00,35.2,31.7,30.36,NNW,348,0.0,0.0,87,0.00,,CLR,0.00,VWS V14.01,2013-01-27 08:24:00,
2013-01-27 03:29:00,35.0,31.5,30.36,NNW,348,0.0,0.0,87,0.00,,CLR,0.00,VWS V14.01,2013-01-27 08:29:00,
2013-01-27 03:30:00,34.6,30.9,30.37,North,360,0.0,1.0,86,0.00,,SCT070,0.00,VWS V14.01,2013-01-27 08:30:00,
2013-01-27 03:39:00,34.6,31.4,30.36,NNW,348,0.0,0.0,88,0.00,,CLR,0.00,VWS V14.01,2013-01-27 08:39:00,
2013-01-27 03:44:00,34.4,31.2,30.36,NNW,348,0.0,0.0,88,0.00,,CLR,0.00,VWS V14.01,2013-01-27 08:44:00,
2013-01-27 03:45:00,34.4,30.4,30.37,WNW,294,0.0,2.0,85,0.00,,SCT070,0.00,VWS V14.01,2013-01-27 08:45:00,
2013-01-27 03:54:00,34.4,31.2,30.36,NNW,348,0.0,0.0,88,0.00,,CLR,0.00,VWS V14.01,2013-01-27 08:54:00,
2013-01-27 03:59:00,34.4,31.2,30.36,NNW,348,0.0,0.0,88,0.00,,CLR,0.00,VWS V14.01,2013-01-27 08:59:00,
2013-01-27 04:00:00,34.1,30.1,30.38,WNW,294,0.0,0.0,85,0.00,,SCT070,0.00,VWS V14.01,2013-01-27 09:00:00,
2013-01-27 04:09:00,34.5,31.3,30.36,NNW,348,0.0,1.0,88,0.00,,CLR,0.00,VWS V14.01,2013-01-27 09:09:00,
2013-01-27 04:14:00,34.6,31.1,30.36,North,360,0.0,2.0,87,0.00,,CLR,0.00,VWS V14.01,2013-01-27 09:14:00,
2013-01-27 04:15:00,33.8,29.8,30.39,SSW,194,0.0,1.0,85,0.00,,SCT070,0.00,VWS V14.01,2013-01-27 09:15:00,
2013-01-27 04:24:00,34.6,31.1,30.37,North,360,0.0,0.0,87,0.00,,CLR,0.00,VWS V14.01,2013-01-27 09:24:00,
2013-01-27 04:29:00,34.7,31.0,30.37,North,360,0.0,1.0,86,0.00,,CLR,0.00,VWS V14.01,2013-01-27 09:29:00,
2013-01-27 04:30:00,33.6,29.3,30.39,SSW,194,0.0,0.0,84,0.00,,SCT070,0.00,VWS V14.01,2013-01-27 09:30:00,
2013-01-27 04:39:00,34.4,30.6,30.37,North,360,0.0,0.0,86,0.00,,CLR,0.00,VWS V14.01,2013-01-27 09:39:00,
2013-01-27 04:44:00,34.4,30.4,30.37,North,360,0.0,2.0,85,0.00,,CLR,0.00,VWS V14.01,2013-01-27 09:44:00,
2013-01-27 04:45:00,33.3,29.0,30.38,SSW,194,0.0,0.0,84,0.00,,SCT070,0.00,VWS V14.01,2013-01-27 09:45:00,
2013-01-27 04:54:00,34.3,30.3,30.38,WNW,294,0.0,0.0,85,0.00,,CLR,0.00,VWS V14.01,2013-01-27 09:54:00,
2013-01-27 04:59:00,34.2,30.2,30.38,WNW,294,0.0,0.0,85,0.00,,CLR,0.00,VWS V14.01,2013-01-27 09:59:00,
2013-01-27 05:00:00,33.0,28.7,30.39,SSW,194,0.0,1.0,84,0.00,,SCT070,0.00,VWS V14.01,2013-01-27 10:00:00,
2013-01-27 05:04:00,34.0,30.0,30.38,WNW,294,0.0,0.0,85,0.00,,CLR,0.00,VWS V14.01,2013-01-27 10:04:00,
2013-01-27 05:14:00,33.8,29.8,30.39,SSW,194,0.0,1.0,85,0.00,,CLR,0.00,VWS V14.01,2013-01-27 10:14:00,
2013-01-27 05:15:00,33.2,28.6,30.40,SSW,194,0.0,0.0,83,0.00,,SCT070,0.00,VWS V14.01,2013-01-27 10:15:00,
2013-01-27 05:19:00,33.7,29.4,30.39,SSW,194,0.0,0.0,84,0.00,,CLR,0.00,VWS V14.01,2013-01-27 10:19:00,
2013-01-27 05:29:00,33.6,29.3,30.39,SSW,194,0.0,0.0,84,0.00,,CLR,0.00,VWS V14.01,2013-01-27 10:29:00,
2013-01-27 05:30:00,33.3,28.4,30.41,SSW,194,0.0,1.0,82,0.00,,SCT070,0.00,VWS V14.01,2013-01-27 10:30:00,
2013-01-27 05:34:00,33.5,29.2,30.38,SSW,194,0.0,0.0,84,0.00,,CLR,0.00,VWS V14.01,2013-01-27 10:34:00,
2013-01-27 05:39:00,33.3,29.0,30.39,SSW,194,0.0,0.0,84,0.00,,CLR,0.00,VWS V14.01,2013-01-27 10:39:00,
2013-01-27 05:45:00,33.3,29.0,30.38,SSW,194,0.0,0.0,84,0.00,,CLR,0.00,VWS V14.01,2013-01-27 10:45:00,
2013-01-27 05:54:00,33.1,28.8,30.38,SSW,194,0.0,1.0,84,0.00,,CLR,0.00,VWS V14.01,2013-01-27 10:54:00,
2013-01-27 05:59:00,33.0,28.7,30.39,SSW,194,0.0,1.0,84,0.00,,CLR,0.00,VWS V14.01,2013-01-27 10:59:00,
2013-01-27 06:00:00,33.2,28.3,30.41,WNW,284,0.0,2.0,82,0.00,,SCT070,0.00,VWS V14.01,2013-01-27 11:00:00,
2013-01-27 06:04:00,32.9,28.6,30.39,SSW,194,0.0,0.0,84,0.00,,CLR,0.00,VWS V14.01,2013-01-27 11:04:00,
2013-01-27 06:14:00,33.2,28.6,30.40,SSW,194,0.0,0.0,83,0.00,,CLR,0.00,VWS V14.01,2013-01-27 11:14:00,
2013-01-27 06:15:00,33.1,28.2,30.42,WSW,256,0.0,7.0,82,0.00,,SCT070,0.00,VWS V14.01,2013-01-27 11:15:00,
2013-01-27 06:19:00,33.4,28.8,30.40,SSW,194,0.0,0.0,83,0.00,,CLR,0.00,VWS V14.01,2013-01-27 11:19:00,
2013-01-27 06:29:00,33.3,28.4,30.41,SSW,194,0.0,1.0,82,0.00,,CLR,0.00,VWS V14.01,2013-01-27 11:29:00,
2013-01-27 06:30:00,32.9,28.0,30.43,WSW,256,0.0,0.0,82,0.00,,SCT070,0.00,VWS V14.01,2013-01-27 11:30:00,
2013-01-27 06:34:00,33.2,28.3,30.41,SSW,194,0.0,0.0,82,0.00,,CLR,0.00,VWS V14.01,2013-01-27 11:34:00,
2013-01-27 06:44:00,33.1,28.2,30.41,SSW,194,0.0,0.0,82,0.00,,CLR,0.00,VWS V14.01,2013-01-27 11:44:00,
2013-01-27 06:45:00,33.1,27.9,30.43,NW,313,0.0,6.0,81,0.00,,SCT070,0.00,VWS V14.01,2013-01-27 11:45:00,
2013-01-27 06:49:00,33.0,28.1,30.41,SSW,194,0.0,0.0,82,0.00,,CLR,0.00,VWS V14.01,2013-01-27 11:49:00,
2013-01-27 06:59:00,33.2,28.3,30.41,WNW,284,0.0,2.0,82,0.00,,CLR,0.00,VWS V14.01,2013-01-27 11:59:00,
2013-01-27 07:00:00,33.3,28.4,30.45,North,355,0.0,1.0,82,0.00,,SCT070,0.00,VWS V14.01,2013-01-27 12:00:00,
2013-01-27 07:03:00,33.1,28.2,30.42,WNW,284,0.0,0.0,82,0.00,,CLR,0.00,VWS V14.01,2013-01-27 12:03:00,
2013-01-27 07:13:00,33.1,28.2,30.42,WSW,256,0.0,7.0,82,0.00,,CLR,0.00,VWS V14.01,2013-01-27 12:13:00,
2013-01-27 07:15:00,33.5,28.6,30.46,North,350,0.0,1.0,82,0.00,,SCT070,0.00,VWS V14.01,2013-01-27 12:15:00,
2013-01-27 07:18:00,33.0,28.1,30.42,WSW,256,0.0,0.0,82,0.00,,CLR,0.00,VWS V14.01,2013-01-27 12:18:00,
2013-01-27 07:23:00,32.9,28.0,30.43,WSW,256,0.0,0.0,82,0.00,,CLR,0.00,VWS V14.01,2013-01-27 12:23:00,
2013-01-27 07:30:00,32.9,28.0,30.43,WSW,256,0.0,0.0,82,0.00,,CLR,0.00,VWS V14.01,2013-01-27 12:30:00,
2013-01-27 07:38:00,33.0,28.1,30.44,NNW,336,0.0,2.0,82,0.00,,CLR,0.00,VWS V14.01,2013-01-27 12:38:00,
2013-01-27 07:45:00,33.1,27.9,30.43,NW,313,0.0,6.0,81,0.00,,CLR,0.00,VWS V14.01,2013-01-27 12:45:00,
2013-01-27 07:53:00,33.3,28.1,30.44,North,355,0.0,1.0,81,0.00,,CLR,0.00,VWS V14.01,2013-01-27 12:53:00,
2013-01-27 08:00:00,33.3,28.4,30.45,North,355,0.0,1.0,82,0.00,,CLR,0.00,VWS V14.01,2013-01-27 13:00:00,
2013-01-27 08:08:00,33.3,28.4,30.45,North,355,0.0,0.0,82,0.00,,CLR,0.00,VWS V14.01,2013-01-27 13:08:00,
2013-01-27 08:15:00,33.5,28.6,30.46,North,350,0.0,1.0,82,0.00,,CLR,0.00,VWS V14.01,2013-01-27 13:15:00,
2013-01-27 08:23:00,33.8,28.9,30.46,North,350,0.0,1.0,82,0.00,,CLR,0.00,VWS V14.01,2013-01-27 13:23:00,
2013-01-27 08:30:00,33.9,29.0,30.47,North,351,1.0,1.0,82,0.00,,CLR,0.00,VWS V14.01,2013-01-27 13:30:00,
2013-01-27 08:38:00,34.2,29.3,30.47,NNW,329,0.0,1.0,82,0.00,,CLR,0.00,VWS V14.01,2013-01-27 13:38:00,
2013-01-27 08:45:00,34.4,29.2,30.47,NW,325,0.0,2.0,81,0.00,,CLR,0.00,VWS V14.01,2013-01-27 13:45:00,
2013-01-27 08:53:00,34.5,29.3,30.47,NNW,330,0.0,1.0,81,0.00,,CLR,0.00,VWS V14.01,2013-01-27 13:53:00,
2013-01-27 08:58:00,34.8,29.6,30.48,NNW,330,0.0,1.0,81,0.00,,CLR,0.00,VWS V14.01,2013-01-27 13:58:00,
2013-01-27 09:00:00,38.6,30.4,30.49,NW,309,0.0,2.0,72,0.00,,SCT070,0.00,VWS V14.01,2013-01-27 14:00:00,
2013-01-27 09:03:00,35.1,29.6,30.48,NNW,330,1.0,1.0,80,0.00,,CLR,0.00,VWS V14.01,2013-01-27 14:03:00,
2013-01-27 09:13:00,35.9,30.0,30.48,NNW,336,0.0,4.0,79,0.00,,CLR,0.00,VWS V14.01,2013-01-27 14:13:00,
2013-01-27 09:15:00,40.0,30.3,30.50,NE,56,0.0,2.0,68,0.00,,SCT070,0.00,VWS V14.01,2013-01-27 14:15:00,
2013-01-27 09:18:00,36.1,29.9,30.48,NNW,328,0.0,3.0,78,0.00,,CLR,0.00,VWS V14.01,2013-01-27 14:18:00,
2013-01-27 09:23:00,36.4,29.9,30.48,NW,323,1.0,3.0,77,0.00,,CLR,0.00,VWS V14.01,2013-01-27 14:23:00,
2013-01-27 09:30:00,36.8,30.0,30.49,WNW,292,0.0,3.0,76,0.00,,CLR,0.00,VWS V14.01,2013-01-27 14:30:00,
2013-01-27 09:38:00,37.3,30.1,30.49,NNW,338,0.0,4.0,75,0.00,,CLR,0.00,VWS V14.01,2013-01-27 14:38:00,
2013-01-27 09:45:00,37.7,30.2,30.49,North,9,0.0,5.0,74,0.00,,CLR,0.00,VWS V14.01,2013-01-27 14:45:00,
2013-01-27 09:53:00,38.2,30.3,30.49,West,273,0.0,2.0,73,0.00,,CLR,0.00,VWS V14.01,2013-01-27 14:53:00,
2013-01-27 09:58:00,38.4,30.2,30.49,NW,307,0.0,2.0,72,0.00,,CLR,0.00,VWS V14.01,2013-01-27 14:58:00,
2013-01-27 10:00:00,42.6,30.5,30.50,ESE,105,0.0,5.0,62,0.00,,SCT070,0.00,VWS V14.01,2013-01-27 15:00:00,
2013-01-27 10:03:00,38.7,30.5,30.49,NW,309,0.0,0.0,72,0.00,,CLR,0.00,VWS V14.01,2013-01-27 15:03:00,
2013-01-27 10:08:00,39.1,30.2,30.50,NW,306,0.0,2.0,70,0.00,,CLR,0.00,VWS V14.01,2013-01-27 15:08:00,
2013-01-27 10:15:00,40.0,30.3,30.50,NE,56,0.0,2.0,68,0.00,,CLR,0.00,VWS V14.01,2013-01-27 15:15:00,
2013-01-27 10:23:00,40.4,30.0,30.50,North,360,0.0,4.0,66,0.00,,CLR,0.00,VWS V14.01,2013-01-27 15:23:00,
2013-01-27 10:28:00,40.8,30.3,30.50,East,88,2.0,4.0,66,0.00,,CLR,0.00,VWS V14.01,2013-01-27 15:28:00,
2013-01-27 10:30:00,44.5,31.1,30.49,WNW,302,0.0,4.0,59,0.00,,SCT070,0.00,VWS V14.01,2013-01-27 15:30:00,
2013-01-27 10:33:00,41.1,29.9,30.51,ENE,74,0.0,2.0,64,0.00,,CLR,0.00,VWS V14.01,2013-01-27 15:33:00,
2013-01-27 10:43:00,41.6,30.3,30.50,NW,325,0.0,4.0,64,0.00,,CLR,0.00,VWS V14.01,2013-01-27 15:43:00,
2013-01-27 10:45:00,45.2,30.5,30.48,East,82,3.0,6.0,56,0.00,,SCT070,0.00,VWS V14.01,2013-01-27 15:45:00,
2013-01-27 10:52:00,42.3,30.6,30.50,East,94,0.0,5.0,63,0.00,,CLR,0.00,VWS V14.01,2013-01-27 15:52:00,
2013-01-27 10:57:00,42.5,30.0,30.50,ENE,64,0.0,5.0,61,0.00,,CLR,0.00,VWS V14.01,2013-01-27 15:57:00,
2013-01-27 11:00:00,45.5,30.7,30.48,NW,326,0.0,4.0,56,0.00,,SCT070,0.00,VWS V14.01,2013-01-27 16:00:00,
2013-01-27 11:02:00,42.8,30.3,30.50,East,94,0.0,2.0,61,0.00,,CLR,0.00,VWS V14.01,2013-01-27 16:02:00,
2013-01-27 11:12:00,43.5,31.0,30.49,North,355,1.0,3.0,61,0.00,,CLR,0.00,VWS V14.01,2013-01-27 16:12:00,
2013-01-27 11:15:00,46.9,32.0,30.47,WNW,302,0.0,5.0,56,0.00,,SCT070,0.00,VWS V14.01,2013-01-27 16:15:00,
2013-01-27 11:17:00,43.9,30.9,30.49,WNW,296,4.0,4.0,60,0.00,,CLR,0.00,VWS V14.01,2013-01-27 16:17:00,
2013-01-27 11:27:00,44.4,31.0,30.49,SSE,161,2.0,4.0,59,0.00,,CLR,0.00,VWS V14.01,2013-01-27 16:27:00,
2013-01-27 11:30:00,47.2,31.0,30.47,West,267,1.0,5.0,53,0.00,,SCT070,0.00,VWS V14.01,2013-01-27 16:30:00,
2013-01-27 11:32:00,44.6,31.2,30.49,NNE,29,0.0,2.0,59,0.00,,CLR,0.00,VWS V14.01,2013-01-27 16:32:00,
2013-01-27 11:42:00,45.2,30.9,30.48,NE,56,1.0,4.0,57,0.00,,CLR,0.00,VWS V14.01,2013-01-27 16:42:00,
2013-01-27 11:45:00,47.5,31.7,30.46,NE,40,0.0,7.0,54,0.00,,SCT070,0.00,VWS V14.01,2013-01-27 16:45:00,
2013-01-27 11:47:00,45.2,30.5,30.48,NE,51,1.0,4.0,56,0.00,,CLR,0.00,VWS V14.01,2013-01-27 16:47:00,
2013-01-27 11:52:00,45.3,31.0,30.48,NE,42,0.0,4.0,57,0.00,,CLR,0.00,VWS V14.01,2013-01-27 16:52:00,
2013-01-27 11:57:00,45.4,30.6,30.48,NW,305,4.0,4.0,56,0.00,,CLR,0.00,VWS V14.01,2013-01-27 16:57:00,
2013-01-27 12:00:00,48.3,32.0,30.46,NNW,342,0.0,5.0,53,0.00,,SCT070,0.00,VWS V14.01,2013-01-27 17:00:00,
2013-01-27 12:07:00,46.3,31.0,30.48,NNE,25,0.0,1.0,55,0.00,,CLR,0.00,VWS V14.01,2013-01-27 17:07:00,
2013-01-27 12:15:00,46.9,32.0,30.47,WNW,302,0.0,5.0,56,0.00,,CLR,0.00,VWS V14.01,2013-01-27 17:15:00,
2013-01-27 12:22:00,47.1,31.8,30.47,WNW,296,1.0,4.0,55,0.00,,CLR,0.00,VWS V14.01,2013-01-27 17:22:00,
2013-01-27 12:30:00,47.2,31.0,30.47,West,267,1.0,5.0,53,0.00,,CLR,0.00,VWS V14.01,2013-01-27 17:30:00,
2013-01-27 12:37:00,47.6,31.8,30.47,WNW,299,0.0,4.0,54,0.00,,CLR,0.00,VWS V14.01,2013-01-27 17:37:00,
2013-01-27 12:45:00,47.5,31.7,30.46,NE,40,0.0,7.0,54,0.00,,CLR,0.00,VWS V14.01,2013-01-27 17:45:00,
2013-01-27 12:52:00,47.7,31.9,30.46,ENE,76,0.0,5.0,54,0.00,,CLR,0.00,VWS V14.01,2013-01-27 17:52:00,
2013-01-27 13:00:00,48.3,32.0,30.46,NNW,342,0.0,5.0,53,0.00,,CLR,0.00,VWS V14.01,2013-01-27 18:00:00,
2013-01-27 13:07:00,48.3,32.4,30.46,ENE,63,4.0,4.0,54,0.00,,CLR,0.00,VWS V14.01,2013-01-27 18:07:00,
2013-01-27 13:15:00,48.6,32.7,30.45,NNW,332,0.0,5.0,54,0.00,,CLR,0.00,VWS V14.01,2013-01-27 18:15:00,
2013-01-27 13:22:00,49.1,32.2,30.45,East,96,0.0,6.0,52,0.00,,CLR,0.00,VWS V14.01,2013-01-27 18:22:00,
2013-01-27 13:30:00,49.0,32.6,30.45,East,91,0.0,6.0,53,0.00,,CLR,0.00,VWS V14.01,2013-01-27 18:30:00,
2013-01-27 13:37:00,49.2,32.3,30.45,East,86,0.0,4.0,52,0.00,,CLR,0.00,VWS V14.01,2013-01-27 18:37:00,
2013-01-27 13:45:00,49.4,33.0,30.44,ENE,62,2.0,5.0,53,0.00,,CLR,0.00,VWS V14.01,2013-01-27 18:45:00,
2013-01-27 13:52:00,49.7,32.8,30.44,NW,322,2.0,5.0,52,0.00,,CLR,0.00,VWS V14.01,2013-01-27 18:52:00,
2013-01-27 13:57:00,50.1,33.2,30.44,NW,309,4.0,5.0,52,0.00,,CLR,0.00,VWS V14.01,2013-01-27 18:57:00,
2013-01-27 14:00:00,51.1,33.1,30.43,ENE,68,0.0,4.0,50,0.00,,SCT070,0.00,VWS V14.01,2013-01-27 19:00:00,
2013-01-27 14:07:00,50.8,33.3,30.44,NNE,31,0.0,9.0,51,0.00,,CLR,0.00,VWS V14.01,2013-01-27 19:07:00,
2013-01-27 14:12:00,50.6,32.7,30.44,East,85,0.0,9.0,50,0.00,,CLR,0.00,VWS V14.01,2013-01-27 19:12:00,
2013-01-27 14:15:00,51.9,33.4,30.43,NE,50,1.0,2.0,49,0.00,,SCT070,0.00,VWS V14.01,2013-01-27 19:15:00,
2013-01-27 14:22:00,50.6,33.2,30.43,ENE,70,0.0,4.0,51,0.00,,CLR,0.00,VWS V14.01,2013-01-27 19:22:00,
2013-01-27 14:27:00,50.8,33.3,30.43,ENE,69,0.0,4.0,51,0.00,,CLR,0.00,VWS V14.01,2013-01-27 19:27:00,
2013-01-27 14:30:00,51.1,34.1,30.42,NE,50,0.0,2.0,52,0.00,,SCT070,0.00,VWS V14.01,2013-01-27 19:30:00,
2013-01-27 14:32:00,51.2,33.7,30.43,NNW,330,1.0,1.0,51,0.00,,CLR,0.00,VWS V14.01,2013-01-27 19:32:00,
2013-01-27 14:41:00,51.8,34.3,30.43,NNW,331,0.0,3.0,51,0.00,,CLR,0.00,VWS V14.01,2013-01-27 19:41:00,
2013-01-27 14:45:00,50.8,34.8,30.43,NE,49,0.0,2.0,54,0.00,,SCT070,0.00,VWS V14.01,2013-01-27 19:45:00,
2013-01-27 14:46:00,51.6,32.6,30.43,ENE,75,2.0,2.0,48,0.00,,CLR,0.00,VWS V14.01,2013-01-27 19:46:00,
2013-01-27 14:51:00,51.0,33.0,30.43,NW,323,2.0,4.0,50,0.00,,CLR,0.00,VWS V14.01,2013-01-27 19:51:00,
2013-01-27 15:00:00,51.1,33.1,30.43,ENE,68,0.0,4.0,50,0.00,,CLR,0.00,VWS V14.01,2013-01-27 20:00:00,
2013-01-27 15:06:00,51.7,34.2,30.43,NNE,19,0.0,2.0,51,0.00,,CLR,0.00,VWS V14.01,2013-01-27 20:06:00,
2013-01-27 15:15:00,51.9,33.4,30.43,NE,50,1.0,2.0,49,0.00,,CLR,0.00,VWS V14.01,2013-01-27 20:15:00,
2013-01-27 15:21:00,51.7,34.7,30.43,NE,50,1.0,2.0,52,0.00,,CLR,0.00,VWS V14.01,2013-01-27 20:21:00,
2013-01-27 15:30:00,51.1,34.1,30.42,NE,50,0.0,2.0,52,0.00,,CLR,0.00,VWS V14.01,2013-01-27 20:30:00,
2013-01-27 15:36:00,51.0,34.0,30.42,NE,50,0.0,2.0,52,0.00,,CLR,0.00,VWS V14.01,2013-01-27 20:36:00,
2013-01-27 15:45:00,50.8,34.8,30.43,NE,49,0.0,2.0,54,0.00,,CLR,0.00,VWS V14.01,2013-01-27 20:45:00,
2013-01-27 15:51:00,50.8,34.3,30.43,NE,49,0.0,5.0,53,0.00,,CLR,0.00,VWS V14.01,2013-01-27 20:51:00,
2013-01-27 16:00:00,50.4,33.5,30.42,NE,51,0.0,5.0,52,0.00,,CLR,0.00,VWS V14.01,2013-01-27 21:00:00,
2013-01-27 16:06:00,50.3,33.4,30.43,NE,49,0.0,2.0,52,0.00,,CLR,0.00,VWS V14.01,2013-01-27 21:06:00,
2013-01-27 16:15:00,50.1,34.1,30.43,NE,49,0.0,2.0,54,0.00,,CLR,0.00,VWS V14.01,2013-01-27 21:15:00,
2013-01-27 16:21:00,50.0,34.0,30.43,NE,49,0.0,0.0,54,0.00,,CLR,0.00,VWS V14.01,2013-01-27 21:21:00,
2013-01-27 16:30:00,49.9,33.9,30.43,ENE,69,0.0,3.0,54,0.00,,CLR,0.00,VWS V14.01,2013-01-27 21:30:00,
2013-01-27 16:36:00,49.8,34.8,30.43,ENE,69,0.0,0.0,56,0.00,,CLR,0.00,VWS V14.01,2013-01-27 21:36:00,
2013-01-27 16:45:00,49.6,33.2,30.43,ENE,69,0.0,0.0,53,0.00,,CLR,0.00,VWS V14.01,2013-01-27 21:45:00,
2013-01-27 16:51:00,49.5,33.1,30.43,ENE,69,0.0,1.0,53,0.00,,CLR,0.00,VWS V14.01,2013-01-27 21:51:00,
2013-01-27 16:56:00,49.4,33.5,30.43,ENE,69,0.0,1.0,54,0.00,,CLR,0.00,VWS V14.01,2013-01-27 21:56:00,
2013-01-27 17:00:00,46.0,34.1,30.44,ENE,69,0.0,0.0,63,0.00,,SCT070,0.00,VWS V14.01,2013-01-27 22:00:00,
2013-01-27 17:06:00,49.2,34.2,30.43,ENE,69,0.0,0.0,56,0.00,,CLR,0.00,VWS V14.01,2013-01-27 22:06:00,
2013-01-27 17:11:00,48.8,33.4,30.43,ENE,69,0.0,1.0,55,0.00,,CLR,0.00,VWS V14.01,2013-01-27 22:11:00,
2013-01-27 17:15:00,45.3,33.8,30.44,ENE,69,0.0,0.0,64,0.00,,SCT070,0.00,VWS V14.01,2013-01-27 22:15:00,
2013-01-27 17:21:00,48.4,33.0,30.44,ENE,69,0.0,0.0,55,0.00,,CLR,0.00,VWS V14.01,2013-01-27 22:21:00,
2013-01-27 17:26:00,48.2,33.3,30.44,ENE,69,0.0,0.0,56,0.00,,CLR,0.00,VWS V14.01,2013-01-27 22:26:00,
2013-01-27 17:30:00,44.9,33.5,30.45,ENE,69,0.0,0.0,64,0.00,,SCT070,0.00,VWS V14.01,2013-01-27 22:30:00,
2013-01-27 17:36:00,47.7,33.7,30.45,ENE,69,0.0,0.0,58,0.00,,CLR,0.00,VWS V14.01,2013-01-27 22:36:00,
2013-01-27 17:41:00,47.4,33.8,30.45,ENE,69,0.0,0.0,59,0.00,,CLR,0.00,VWS V14.01,2013-01-27 22:41:00,
2013-01-27 17:45:00,44.4,33.4,30.46,ENE,69,0.0,0.0,65,0.00,,SCT070,0.00,VWS V14.01,2013-01-27 22:45:00,
2013-01-27 17:51:00,46.6,33.9,30.45,ENE,69,0.0,0.0,61,0.00,,CLR,0.00,VWS V14.01,2013-01-27 22:51:00,
2013-01-27 17:56:00,46.3,34.0,30.45,ENE,69,0.0,0.0,62,0.00,,CLR,0.00,VWS V14.01,2013-01-27 22:56:00,
2013-01-27 18:00:00,43.6,33.8,30.45,ENE,69,0.0,0.0,68,0.00,,SCT070,0.00,VWS V14.01,2013-01-27 23:00:00,
2013-01-27 18:06:00,45.6,34.1,30.44,ENE,69,0.0,0.0,64,0.00,,OVC110,0.00,VWS V14.01,2013-01-27 23:06:00,
2013-01-27 18:11:00,45.4,34.0,30.44,ENE,69,0.0,0.0,64,0.00,,OVC110,0.00,VWS V14.01,2013-01-27 23:11:00,
2013-01-27 18:15:00,43.1,33.6,30.45,ENE,69,0.0,0.0,69,0.00,,SCT070,0.00,VWS V14.01,2013-01-27 23:15:00,
2013-01-27 18:21:00,45.1,33.7,30.45,ENE,69,0.0,0.0,64,0.00,,OVC110,0.00,VWS V14.01,2013-01-27 23:21:00,
2013-01-27 18:26:00,45.0,33.6,30.45,ENE,69,0.0,0.0,64,0.00,,OVC110,0.00,VWS V14.01,2013-01-27 23:26:00,
2013-01-27 18:30:00,43.2,33.0,30.45,ENE,69,0.0,1.0,67,0.00,,SCT070,0.00,VWS V14.01,2013-01-27 23:30:00,
2013-01-27 18:31:00,44.9,33.9,30.45,ENE,69,0.0,0.0,65,0.00,,OVC110,0.00,VWS V14.01,2013-01-27 23:31:00,
2013-01-27 18:36:00,44.7,33.7,30.46,ENE,69,0.0,0.0,65,0.00,,OVC110,0.00,VWS V14.01,2013-01-27 23:36:00,
2013-01-27 18:45:00,44.4,33.4,30.46,ENE,69,0.0,0.0,65,0.00,,OVC110,0.00,VWS V14.01,2013-01-27 23:45:00,
2013-01-27 18:50:00,44.1,33.5,30.46,ENE,69,0.0,0.0,66,0.00,,OVC110,0.00,VWS V14.01,2013-01-27 23:50:00,
2013-01-27 19:00:00,43.6,33.8,30.45,ENE,69,0.0,0.0,68,0.00,,OVC110,0.00,VWS V14.01,2013-01-28 00:00:00,
2013-01-27 19:05:00,43.4,33.6,30.45,ENE,69,0.0,0.0,68,0.00,,CLR,0.00,VWS V14.01,2013-01-28 00:05:00,
2013-01-27 19:15:00,43.1,33.6,30.45,ENE,69,0.0,0.0,69,0.00,,CLR,0.00,VWS V14.01,2013-01-28 00:15:00,
2013-01-27 19:20:00,42.9,33.4,30.45,ENE,69,0.0,0.0,69,0.00,,CLR,0.00,VWS V14.01,2013-01-28 00:20:00,
2013-01-27 19:25:00,43.0,33.2,30.46,ENE,69,0.0,0.0,68,0.00,,CLR,0.00,VWS V14.01,2013-01-28 00:25:00,
2013-01-27 19:30:00,42.8,33.0,30.46,East,88,0.0,0.0,68,0.00,,SCT070,0.00,VWS V14.01,2013-01-28 00:30:00,
2013-01-27 19:35:00,43.2,33.0,30.46,ENE,69,0.0,0.0,67,0.00,,CLR,0.00,VWS V14.01,2013-01-28 00:35:00,
2013-01-27 19:40:00,43.2,33.0,30.46,ENE,69,0.0,0.0,67,0.00,,CLR,0.00,VWS V14.01,2013-01-28 00:40:00,
2013-01-27 19:45:00,43.2,33.0,30.46,ENE,69,0.0,0.0,67,0.00,,CLR,0.00,VWS V14.01,2013-01-28 00:45:00,
2013-01-27 19:55:00,43.3,33.1,30.45,ENE,75,0.0,1.0,67,0.00,,CLR,0.00,VWS V14.01,2013-01-28 00:55:00,
2013-01-27 20:00:00,42.3,33.2,30.47,East,87,0.0,0.0,70,0.00,,SCT070,0.00,VWS V14.01,2013-01-28 01:00:00,
2013-01-27 20:05:00,43.1,32.9,30.46,East,88,0.0,1.0,67,0.00,,CLR,0.00,VWS V14.01,2013-01-28 01:05:00,
2013-01-27 20:10:00,43.1,32.9,30.46,East,88,0.0,1.0,67,0.00,,CLR,0.00,VWS V14.01,2013-01-28 01:10:00,
2013-01-27 20:15:00,43.1,32.9,30.46,East,88,0.0,0.0,67,0.00,,CLR,0.00,VWS V14.01,2013-01-28 01:15:00,
2013-01-27 20:20:00,43.1,32.9,30.46,East,88,0.0,0.0,67,0.00,,CLR,0.00,VWS V14.01,2013-01-28 01:20:00,
2013-01-27 20:30:00,42.8,33.0,30.46,East,88,0.0,0.0,68,0.00,,CLR,0.00,VWS V14.01,2013-01-28 01:30:00,
2013-01-27 20:35:00,42.7,32.9,30.46,East,87,0.0,0.0,68,0.00,,CLR,0.00,VWS V14.01,2013-01-28 01:35:00,
2013-01-27 20:45:00,42.5,32.7,30.46,East,88,0.0,1.0,68,0.00,,CLR,0.00,VWS V14.01,2013-01-28 01:45:00,
2013-01-27 20:50:00,42.4,33.0,30.47,East,88,0.0,0.0,69,0.00,,CLR,0.00,VWS V14.01,2013-01-28 01:50:00,
2013-01-27 20:55:00,42.3,32.9,30.46,East,88,0.0,0.0,69,0.00,,CLR,0.00,VWS V14.01,2013-01-28 01:55:00,
2013-01-27 21:00:00,42.3,33.2,30.47,East,87,0.0,0.0,70,0.00,,CLR,0.00,VWS V14.01,2013-01-28 02:00:00,
2013-01-27 21:10:00,42.0,33.3,30.47,East,88,0.0,0.0,71,0.00,,BKN080,0.00,VWS V14.01,2013-01-28 02:10:00,
2013-01-27 21:15:00,41.8,33.5,30.46,East,88,0.0,0.0,72,0.00,,BKN080,0.00,VWS V14.01,2013-01-28 02:15:00,
2013-01-27 21:25:00,41.5,33.8,30.47,East,88,0.0,0.0,74,0.00,,BKN080,0.00,VWS V14.01,2013-01-28 02:25:00,
2013-01-27 21:30:00,41.4,33.8,30.47,East,87,0.0,0.0,74,0.00,,BKN080,0.00,VWS V14.01,2013-01-28 02:30:00,
2013-01-27 21:35:00,41.2,33.5,30.47,East,87,0.0,0.0,74,0.00,,BKN080,0.00,VWS V14.01,2013-01-28 02:35:00,
2013-01-27 21:45:00,40.9,33.9,30.47,East,88,0.0,0.0,76,0.00,,BKN080,0.00,VWS V14.01,2013-01-28 02:45:00,
2013-01-27 21:50:00,40.7,34.1,30.47,East,88,0.0,0.0,77,0.00,,BKN080,0.00,VWS V14.01,2013-01-28 02:50:00,
2013-01-27 22:00:00,40.5,33.9,30.47,East,88,0.0,0.0,77,0.00,,BKN080,0.00,VWS V14.01,2013-01-28 03:00:00,
2013-01-27 22:05:00,40.4,33.8,30.46,East,88,0.0,0.0,77,0.00,,OVC075,0.00,VWS V14.01,2013-01-28 03:05:00,
2013-01-27 22:15:00,40.1,33.8,30.46,East,88,0.0,0.0,78,0.00,,OVC075,0.00,VWS V14.01,2013-01-28 03:15:00,
2013-01-27 22:20:00,40.0,34.0,30.46,East,88,0.0,0.0,79,0.00,,OVC075,0.00,VWS V14.01,2013-01-28 03:20:00,
2013-01-27 22:30:00,40.1,34.4,30.46,East,88,0.0,0.0,80,0.00,,OVC075,0.00,VWS V14.01,2013-01-28 03:30:00,
2013-01-27 22:35:00,40.1,34.4,30.46,East,88,0.0,0.0,80,0.00,,OVC075,0.00,VWS V14.01,2013-01-28 03:35:00,
2013-01-27 22:44:00,40.1,34.8,30.46,East,87,0.0,1.0,81,0.00,,OVC075,0.00,VWS V14.01,2013-01-28 03:44:00,
2013-01-27 22:45:00,40.1,33.2,30.45,East,87,0.0,0.0,76,0.00,,SCT070,0.00,VWS V14.01,2013-01-28 03:45:00,
2013-01-27 22:49:00,40.2,34.8,30.46,East,87,0.0,0.0,81,0.00,,OVC075,0.00,VWS V14.01,2013-01-28 03:49:00,
2013-01-27 22:59:00,40.2,34.5,30.46,East,88,0.0,0.0,80,0.00,,OVC075,0.00,VWS V14.01,2013-01-28 03:59:00,
2013-01-27 23:00:00,40.1,32.8,30.45,East,88,0.0,0.0,75,0.00,,SCT070,0.00,VWS V14.01,2013-01-28 04:00:00,
2013-01-27 23:04:00,40.2,34.5,30.46,East,88,0.0,0.0,80,0.00,,OVC075,0.00,VWS V14.01,2013-01-28 04:04:00,
2013-01-27 23:14:00,40.3,34.3,30.46,East,88,0.0,0.0,79,0.00,,OVC075,0.00,VWS V14.01,2013-01-28 04:14:00,
2013-01-27 23:15:00,40.1,32.8,30.44,East,87,0.0,1.0,75,0.00,,SCT070,0.00,VWS V14.01,2013-01-28 04:15:00,
2013-01-27 23:19:00,40.2,34.2,30.46,East,88,0.0,0.0,79,0.00,,OVC075,0.00,VWS V14.01,2013-01-28 04:19:00,
2013-01-27 23:24:00,40.1,34.1,30.46,East,87,0.0,0.0,79,0.00,,OVC075,0.00,VWS V14.01,2013-01-28 04:24:00,
2013-01-27 23:29:00,40.1,34.1,30.46,East,88,0.0,0.0,79,0.00,,OVC075,0.00,VWS V14.01,2013-01-28 04:29:00,
2013-01-27 23:30:00,40.1,32.8,30.43,East,88,0.0,2.0,75,0.00,,SCT070,0.00,VWS V14.01,2013-01-28 04:30:00,
2013-01-27 23:34:00,40.1,33.8,30.45,East,88,0.0,0.0,78,0.00,,OVC075,0.00,VWS V14.01,2013-01-28 04:34:00,
2013-01-27 23:44:00,40.1,33.5,30.45,East,88,0.0,0.0,77,0.00,,OVC075,0.00,VWS V14.01,2013-01-28 04:44:00,
2013-01-27 23:45:00,39.8,32.5,30.43,East,88,0.0,2.0,75,0.00,,SCT070,0.00,VWS V14.01,2013-01-28 04:45:00,
2013-01-27 23:49:00,40.2,33.2,30.45,East,87,0.0,0.0,76,0.00,,OVC075,0.00,VWS V14.01,2013-01-28 04:49:00,
2013-01-27 23:59:00,40.1,32.8,30.45,East,88,0.0,0.0,75,0.00,,OVC075,0.00,VWS V14.01,2013-01-28 04:59:00,